Location: Gamarra
(10.0780°N, 67.4929°W)
Time: 08:38:12
(UTC+00:00)

Centaur D AC-29 - Pass Details

Date: 13 April 2024
Orbit: 622 x 36199 km, 26.5° (Epoch: 22 May)

Event Time Altitude Azimuth Distance (km) Brightness Sun altitude
Rises 23:45:17 0° 228° (SW) 5,842 6.5 -16.5°
Reaches altitude 10° 23:51:05 10° 214° (SW) 3,176 4.9 -17.8°
Maximum altitude 23:55:35 21° 163° (SSE) 1,602 2.9 -18.9°
Enters shadow 23:55:53 21° 156° (SSE) 1,572 2.8 -19.0°
